Terminal Aerodrome Forecast
Issued by NWS Cleveland, OH

Home | Current Version | Previous Version | Text Only | Print | Product List | Glossary Off
Versions: 1 2 3 4 5 6 7 8 9 10 11 12 13 14 15 16 17 18 19 20 21 22 23 24

000
FTUS41 KCLE 262300
TAFCAK
TAF
KCAK 262328Z 2700/2724 22006KT P6SM SCT040 BKN200
     FM270100 24005KT P6SM VCSH BKN045
      TEMPO 2701/2705 VRB12G30KT 2SM -TSRA BR OVC025CB
     FM270500 26006KT P6SM BKN120 OVC250
     FM270900 32006KT P6SM SCT025 BKN250
      TEMPO 2709/2713 5SM BR BKN025
     FM271300 34006KT P6SM BKN025
     FM271600 35008KT P6SM SCT035 BKN250=

USA.gov is the U.S. government's official web portal to all federal, state and local government web resources and services.